Location: Kra?nica
(53.4833°N, 14.6167°E)
Time: 21:21:42
(UTC+00:00)

Cosmos 1315 Rocket - Pass Details

Date: 23 May 2024
Orbit: 515 x 542 km, 81.2° (Epoch: 20 June)

Event Time Altitude Azimuth Distance (km) Brightness Sun altitude
Exits shadow 01:40:21 10° 230° (SW) 1,764 4.8 -8.0°
Maximum altitude 01:43:48 30° 293° (WNW) 968 3.9 -7.7°
Drops below altitude 10° 01:47:19 10° 356° (N) 1,793 6.2 -7.4°
Sets 01:49:42 0° 7° (N) 2,694 7.4 -7.2°
